Location: D�pe
(52.6057°N, 8.1808°E)
Time: 13:48:35
(UTC+00:00)

SL-4 R/B - Pass Details

Date: 29 October 2020
Orbit: 427 x 665 km, 51.6° (Epoch: 28 November)

Event Time Altitude Azimuth Distance (km) Brightness Sun altitude
Rises 17:28:34 0° 277° (W) 2,428 7.1 -13.6°
Reaches altitude 10° 17:30:38 10° 274° (W) 1,579 5.8 -13.9°
Maximum altitude 17:34:09 64° 193° (SSW) 520 1.9 -14.4°
Enters shadow 17:36:12 24° 117° (ESE) 1,027 2.9 -14.7°
